{"data":{"norad_id":61014,"intl_designator":"2024-159D","name":"GEESAT-3 04","alt_names":[],"object_type":"PAYLOAD","status":"ACTIVE","operator":null,"country":"PRC","launch_date":"2024-09-05","launch_site_code":"TAISC","launch_vehicle":null,"mission":null,"orbit_class":"UNKNOWN","rcs_meters":null,"size_class":null,"mass_kg":null,"dimensions":null,"purposes":[],"wikipedia_slug":null,"has_3d_model":false,"image_url":null,"decayed_at":null,"tle_current":{"epoch":"2026-05-25T03:18:59.782752Z","epoch_age_seconds":66278,"freshness":"FRESH","line1":"1 61014U 24159D   26145.13819193  .00001995  00000+0  26931-3 0  9993","line2":"2 61014  49.9968 100.8400 0003083 344.0538  16.0303 14.83153295 94583","mean_motion":14.83153295,"eccentricity":0.0003083,"inclination_deg":49.9968,"raan_deg":100.84,"arg_perigee_deg":344.0538,"mean_anomaly_deg":16.0303,"bstar":0.00026931,"rev_number":9458,"period_min":97.09043595524,"perigee_km":617.23101673103,"apogee_km":621.54569086418,"semimajor_km":6997.5253537976,"source":"CELESTRAK","updated_at":"2026-05-25T13:38:02.276657Z"}}}